This is the latest recevied weather packets stored in our database for station/object KD7CIH. If no packets are shown the sender has not sent any weather packets the latest 10 day(s).
| Time | Temp. | Humidity | Pressure | Rain* | Wind** | Luminosity | Snow |
|---|---|---|---|---|---|---|---|
| 1777720834 | -2.22° C | 74% | 1017.5 hPa | 0 mm | - | - | - |
| 1777720534 | -2.22° C | 72% | 1017.6 hPa | 0 mm | - | - | - |
| 1777720235 | -1.67° C | 71% | 1017.6 hPa | 0 mm | - | - | - |
| 1777719933 | -1.67° C | 70% | 1017.6 hPa | 0 mm | - | - | - |
| 1777719761 | -2.22° C | 70% | 1017.6 hPa | 0 mm | - | - | - |
| 1777719336 | -2.22° C | 70% | 1017.6 hPa | 0 mm | - | - | - |
| 1777719035 | -2.22° C | 71% | 1017.5 hPa | 0 mm | - | - | - |
| 1777718733 | -2.22° C | 71% | 1017.6 hPa | 0 mm | - | - | - |
| 1777718433 | -1.67° C | 71% | 1017.6 hPa | 0 mm | - | - | - |
| 1777718135 | -1.67° C | 71% | 1017.6 hPa | 0 mm | - | - | - |
| 1777717959 | -1.67° C | 70% | 1017.7 hPa | 0 mm | - | - | - |
| 1777717533 | -1.67° C | 70% | 1017.6 hPa | 0 mm | - | - | - |
| 1777717229 | -1.11° C | 70% | 1017.6 hPa | 0 mm | - | - | - |
| 1777717050 | -1.11° C | 70% | 1017.6 hPa | 0 mm | - | - | - |
| 1777716619 | -1.11° C | 70% | 1017.6 hPa | 0 mm | - | - | - |
| 1777716440 | -1.11° C | 70% | 1017.6 hPa | 0 mm | - | - | - |
| 1777716009 | -1.11° C | 71% | 1017.6 hPa | 0 mm | - | - | - |
| 1777715707 | -1.11° C | 70% | 1017.6 hPa | 0 mm | - | - | - |
| 1777715407 | -0.56° C | 70% | 1017.5 hPa | 0 mm | - | - | - |
| 1777715233 | -0.56° C | 69% | 1017.6 hPa | 0 mm | - | - | - |
| 1777714806 | -0.56° C | 69% | 1017.4 hPa | 0 mm | - | - | - |
| 1777714506 | -0.56° C | 68% | 1017.5 hPa | 0 mm | - | - | - |
| 1777714207 | 0° C | 67% | 1017.5 hPa | 0 mm | - | - | - |
| 1777713906 | 0.56° C | 64% | 1017.5 hPa | 0 mm | - | - | - |
| 1777713606 | 0.56° C | 58% | 1017.6 hPa | 0 mm | - | - | - |
* Rain latest hour (hover to see other rain measurements)
** Current wind speed in m/s (hover to see current wind gust speed)